Location: West Cummington
(42.4920°N, 72.9680°W)
Time: 13:15:38
(UTC-04:00)

Cosmos 1703 Rocket - Visible Passes

Search period start: 29 May 2016 00:00
Search period end: 08 June 2016 00:00
Orbit: 606 x 634 km, 82.5° (Epoch: 28 May)

Date Brightness Start Highest point End Pass type
(mag) Time Alt. Az. Time Alt. Az. Time Alt. Az.
29 May 6.3 02:07:26 10° NE 02:09:11 12° ENE 02:10:57 10° E visible
29 May 3.5 03:43:13 10° NNW 03:47:33 62° W 03:51:02 15° S visible
30 May 5.7 02:23:45 10° NNE 02:27:08 22° ENE 02:30:29 10° ESE visible
30 May 4.4 04:01:12 10° NNW 04:05:05 32° W 04:08:03 15° SSW visible
31 May 4.7 02:40:52 10° N 02:44:58 39° ENE 02:47:58 16° SE visible
31 May 5.2 04:19:37 10° NW 04:22:31 18° W 04:25:07 11° SW visible
01 Jun 3.6 02:58:20 10° N 03:02:42 75° E 03:05:05 26° SSE visible
02 Jun 6.2 01:39:57 10° NE 01:42:02 13° ENE 01:44:06 10° E visible
02 Jun 3.6 03:16:02 10° NNW 03:20:19 56° W 03:22:13 30° SSW visible
03 Jun 5.5 01:56:27 10° NNE 01:59:57 23° ENE 02:02:17 15° ESE visible
03 Jun 4.5 03:34:04 10° NNW 03:37:51 29° W 03:39:25 23° SW visible
04 Jun 4.5 02:13:37 10° N 02:17:46 42° ENE 02:19:29 28° SE visible
04 Jun 5.3 03:52:35 10° NW 03:55:15 16° W 03:56:38 14° WSW visible
05 Jun 3.5 02:31:07 10° N 02:35:29 82° E 02:36:44 46° SSE visible
06 Jun 6.0 01:12:30 10° NE 01:14:51 14° ENE 01:16:51 11° E visible
06 Jun 3.8 02:48:52 10° NNW 02:53:05 51° W 02:54:00 43° SW visible
07 Jun 5.3 01:29:08 10° NNE 01:32:46 25° ENE 01:34:08 21° ESE visible
07 Jun 4.6 03:06:56 10° NNW 03:10:36 27° W 03:11:17 26° WSW visible
